Location: Downe
(51.3167°N, 0.0500°E)
Time: 06:11:35
(UTC+00:00)

IDEFIX/ARIANE 42P - Pass Details

Date: 17 November 2019
Orbit: 784 x 804 km, 98.3° (Epoch: 06 December)

Event Time Altitude Azimuth Distance (km) Brightness Sun altitude
Rises 05:43:11 0° 4° (N) 3,295 5.7 -14.9°
Reaches altitude 10° 05:46:19 10° 345° (NNW) 2,359 4.8 -14.4°
Enters shadow 05:49:05 16° 312° (NW) 1,948 4.1 -14.0°
